Location: Haliburton Scout Reserve
(45.0900°N, 78.3200°W)
Time: 12:34:16
(UTC-05:00)

N. Korean satellite - Pass Details

Date: 29 November 2021
Orbit: 447 x 491 km, 97.3° (Epoch: 23 January)

Event Time Altitude Azimuth Distance (km) Brightness Sun altitude
Rises 05:22:12 0° 15° (NNE) 2,479 10.2 -21.9°
Reaches altitude 10° 05:24:16 10° 18° (NNE) 1,595 9.3 -21.5°
Maximum altitude 05:27:39 64° 101° (E) 504 6.8 -20.9°
Drops below altitude 10° 05:30:59 10° 183° (S) 1,569 9.2 -20.3°
Sets 05:33:01 0° 187° (S) 2,434 10.2 -20.0°
